Showing default

FORMOSAT7-1/COSMIC2-1, 44349

Orbit data source: Space-Track

FORMOSAT7-1/COSMIC2-1, 44349 is a payload satellite owned by NSPO (TW) in LEO that was launched on Tue, 25 Jun 2019 UTC via an FALCON HEAVY launch vehicle from the Air Force Eastern Test Range (AFETR). Payload-class satellites include a variety of spacecraft equipped with specific instruments for various scientific and technological missions. These include communications satellites like Starlink; space stations such as the ISS; scientific satellites like the Hubble; Earth observation satellites from companies like Planet Labs, Umbra, and HawkEye 360; GPS; miniature CubeSats for education and research; and military/defense satellites.

Not visible in the next 10 days
Identifier
44349, 2019-036L
Orbit
LEO
Last TLE update
11 hours ago
Origin
Manufacturer
SSTL (Astrium)
Mission
Operational Civil Weather
Bus & Motor
SSTL-100, Unknown motor
Mass
278 kg wet, 278 kg dry
Launch date (UTC)
2019-06-25 (6 years ago)
Launch vehicle
FALCON HEAVY
Launch site
Air Force Eastern Test Range (AFETR)
Object type
Payload
Rocket body
Debris
Shape & HBR
Box + 1 Pan, 3 m
Radar Cross Section
2.189 m², Large (>1 m²)

Expand to show TLE details & history

TLE from 11 hours ago
0 FORMOSAT7-1/COSMIC2-1
1 44349U 19036L   25183.79891782  .00003315  00000-0  20093-3 0  9992
2 44349  23.9974 232.2196 0001851 169.0458 191.0085 15.05732568332210
Epoch: 2025-07-02T19:10Z
TLE epoch observation values (Epoch: 2025-07-02T19:10:26.499Z)
Latitude
-0.00003°
Longitude
23.53429°
Altitude
548.397 km
Speed
7.59 km/s
True Right ascension
15h 28m 52s
True Declination
0° 00' 00"
Sunlit
Object was in full shadow at epoch
Visualization orbit readout
Latitude
-21.70837°
Longitude
-96.69356°
Altitude
551.93 km
Speed
7.588 km/s
Apparent Right ascension
06h 38m 39s
Apparent Declination
-31° 03' 03"
Sunlit
Object is in daylight
Visualization observer readout
Local Sidereal Time
17:33:26
Azimuth
298.761° NW
Elevation
-74.077°
Doppler factor
1
Orbital elements
Apogee altitude
555.328 km
Perigee altitude
552.762 km
Semi-major axis
6,932.182 km
Eccentricity
0.00019
Inclination
23.9974°
RAAN
232.2196°
Arg. of periapsis
169.0458°
True anomaly
Unknown
Mean anomaly
191.0085°
Eccentric anomaly
Unknown
Mean motion
3.76044 °/min
Orbital period
95.73 mins
BSTAR
0.00020093
Loading maneuver chart data...
Loading SW <> Apogee altitude chart data...
Loading historical data...
Loading historical data...
Loading historical data...
Loading historical data...
Loading historical data...
Loading historical data...
Loading historical data...

FORMOSAT7-1/COSMIC2-1 Visibility

Observer location: undefined°, undefined°

FORMOSAT7-1/COSMIC2-1 is likely not visible in the next few days
Span
Click to sort rows by Start time (UTC) header in descending order
Start Az.
Max El. time (UTC)
Max El. Az.
Max El.
End time (UTC)
End Az.
|